Home > Time Zones > World Clock > Weather > Iran > Rasht > Past weeks

Flag for Iran Weather past 2 weeks in Rasht, Iran

Now
48 °F

Fog.


Feels Like: 48 °F
Forecast: 46 / 63 °F
Wind: No wind

Location: Rasht Airport

Current Time: Apr 1, 2015 at 6:14:43 AM

Latest Report: Apr 1, 2015 at 5:30 AM


Visibility: 2 mi

Pressure: 29.95 "Hg

Humidity: 94%

Dew point: 46 °F

Location of RashtLocation

Historic Weather in Rasht — Graph

°F

Rasht temperature yesterday

Maximum temperature yesterday: 52 °F (at 1:30 PM)
Minimum temperature yesterday: 46 °F (at 1:30 AM)
Average temperature yesterday: 48 °F

Past Weeks' High & Low Weather Summary

 TemperatureHumidityPressure
High66 °F (Mar 27, 1:30 PM)100% (Mar 17, 5:30 AM)30.42 "Hg (Mar 17, 5:30 AM)
Low41 °F (Mar 24, 6:30 AM)46% (Mar 27, 1:30 PM)29.80 "Hg (Mar 31, 4:30 AM)
Average51 °F88%30.13 "Hg
* Reported Mar 17 3:30 AM — Apr 1 4:30 AM, Rasht, Weather by CustomWeather, © 2015

Note: Actual official high and low records may vary slightly from our data, if they occured in-between our weather recording intervals... More about our weather records

Advertising

Rasht weather history for previous 24 hours

 ConditionsComfort  
Time TempWeatherWind HumidityBarometerVisibility
4:30 AM
Wed, Apr 1
48 °FFog.No wind94%29.95 "Hg2 mi
3:30 AM48 °FFog.No wind94%30.01 "Hg2 mi
2:30 AM48 °FFog.No wind94%30.01 "Hg2 mi
1:30 AM48 °FFog.No wind94%29.98 "Hg2 mi
12:30 AM48 °FFog.No wind94%29.98 "Hg2 mi
11:30 PM
Tue, Mar 31
48 °FFog.No wind94%29.98 "Hg2 mi
10:30 PM48 °FFog.No wind94%29.98 "Hg2 mi
9:30 PM48 °FFog.5 mph94%29.98 "Hg2 mi
8:30 PM48 °FFog.5 mph94%29.98 "Hg2 mi
8:00 PM48 °FLight rain. Broken clouds.No wind94%29.98 "Hg2 mi
7:30 PM48 °FLight rain. Broken clouds.5 mph94%29.98 "Hg2 mi
7:00 PM48 °FLight rain. Broken clouds.5 mph94%29.98 "Hg2 mi
6:30 PM48 °FFog.5 mph94%29.98 "Hg2 mi
6:00 PM48 °FFog.5 mph94%29.98 "Hg2 mi
5:30 PM48 °FDrizzle. Mostly cloudy.5 mph94%29.98 "Hg1 mi
5:00 PM48 °FDrizzle. Mostly cloudy.5 mph94%29.95 "Hg1 mi
4:30 PM50 °FFog.7 mph88%29.95 "Hg2 mi
4:00 PM48 °FFog.7 mph94%29.95 "Hg2 mi
3:30 PM48 °FFog.7 mph94%29.95 "Hg1 mi
3:00 PM50 °FDrizzle. Mostly cloudy.12 mph88%29.95 "Hg1 mi
2:30 PM50 °FDrizzle. Mostly cloudy.12 mph88%29.95 "Hg1 mi
2:00 PM52 °FFog.9 mph82%29.92 "Hg2 mi
1:30 PM52 °FFog.9 mph82%29.92 "Hg2 mi
1:00 PM50 °FFog.7 mph88%29.92 "Hg2 mi
12:30 PM50 °FFog.12 mph88%29.92 "Hg2 mi
12:00 PM50 °FFog.7 mph88%29.92 "Hg2 mi
11:30 AM50 °FFog.9 mph88%29.92 "Hg2 mi
11:00 AM50 °FFog.9 mph88%29.92 "Hg2 mi
10:30 AM50 °FFog.9 mph88%29.92 "Hg2 mi
10:00 AM48 °FFog.9 mph100%29.89 "Hg2 mi
9:30 AM48 °FFog.7 mph100%29.89 "Hg2 mi
9:00 AM48 °FFog.5 mph94%29.86 "Hg2 mi
8:30 AM48 °FFog.5 mph94%29.86 "Hg2 mi
8:00 AM48 °FFog.5 mph94%29.86 "Hg2 mi
7:30 AM48 °FFog.5 mph94%29.86 "Hg2 mi
7:00 AM46 °FLight rain. Mostly cloudy.No wind100%29.83 "Hg2 mi
6:30 AM46 °FFog.No wind100%29.83 "Hg2 mi
Weather by CustomWeather, © 2015

See weather overviewHow to use our weather pages